Back to catalog

COSMOS 2251 DEB

AliveLEO
NORAD 33994·DEBRIS·🇷🇺 Russia

Launched Jun 16, 1993 from Plesetsk Cosmodrome

Loading…

Next Passes (next 24 hours)

TLE

FreshSource: Space-Track

Epoch: Sep 14, 2026, 09:16 UTC

1 33994U 93036GD  26257.38658580  .00000158  00000-0  56822-4 0  9995
2 33994  74.0437  40.2356 0022083 109.2154 281.0221 14.41366463923910

Track COSMOS 2251 DEB in real time with AllMySat

Download on the App Store